When you browse on this site, cookies collect data to enhance your experience and personalize the content and advertising you see.
Visit our Privacy Policy to learn more. By continuing to use the site, you agree to this use of cookies and data.
  • In Romania
  • List of Countries
  • For 7 days
  • Water Temperature
  • Satellite Maps
  • Weather Map
  • Weather Widgets
  • user-avatar
    Login

    Hourly Weather Lipiga

    Today, 17 July, Wednesday

    Time Temperature Precipitation Wind Pressure Humidity
    00:00 +13°C° 0.1 mm 2 mps 742 mmHg 98%
    01:00 +13°C° 0.1 mm 2 mps 742 mmHg 98%
    02:00 +13°C° 0 mm 1 mps 742 mmHg 99%
    03:00 +13°C° 0 mm 1 mps 742 mmHg 98%
    04:00 +13°C° 0 mm 1 mps 742 mmHg 98%
    05:00 +14°C° 0 mm 1 mps 741 mmHg 98%
    06:00 +15°C° 0 mm 1 mps 741 mmHg 94%
    07:00 +16°C° 0 mm 1 mps 741 mmHg 90%
    08:00 +17°C° 0 mm 3 mps 741 mmHg 90%
    09:00 +18°C° 0.1 mm 3 mps 741 mmHg 85%
    10:00 +19°C° 0.1 mm 3 mps 742 mmHg 81%
    11:00 +19°C° 0.1 mm 3 mps 742 mmHg 76%
    12:00 +19°C° 0.4 mm 3 mps 741 mmHg 79%
    13:00 +19°C° 0.4 mm 3 mps 741 mmHg 82%
    14:00 +18°C° 0.4 mm 3 mps 741 mmHg 85%
    15:00 +18°C° 0.2 mm 2 mps 741 mmHg 88%
    16:00 +17°C° 0.2 mm 2 mps 741 mmHg 90%
    17:00 +16°C° 0.2 mm 1 mps 741 mmHg 93%
    18:00 +16°C° 0.1 mm 1 mps 741 mmHg 94%
    19:00 +16°C° 0.1 mm 1 mps 741 mmHg 95%
    20:00 +15°C° 0.1 mm 1 mps 741 mmHg 97%
    21:00 +15°C° 0.1 mm 1 mps 740 mmHg 97%
    22:00 +15°C° 0.1 mm 1 mps 740 mmHg 97%
    23:00 +15°C° 0.1 mm 1 mps 740 mmHg 98%

    Tomorrow, 18 July, Thursday

    Time Temperature Precipitation Wind Pressure Humidity
    00:00 +15°C° 0.1 mm 1 mps 740 mmHg 98%
    01:00 +14°C° 0.1 mm 1 mps 740 mmHg 98%
    02:00 +14°C° 0.1 mm 1 mps 739 mmHg 98%
    03:00 +14°C° 0.1 mm 1 mps 739 mmHg 98%
    04:00 +14°C° 0.1 mm 1 mps 739 mmHg 98%
    05:00 +14°C° 0.1 mm 1 mps 738 mmHg 98%
    06:00 +15°C° 0.2 mm 1 mps 738 mmHg 96%
    07:00 +14°C° 0.2 mm 0 mps 738 mmHg 94%
    08:00 +15°C° 0.2 mm 0 mps 738 mmHg 92%
    09:00 +17°C° 0.1 mm 0 mps 738 mmHg 84%
    10:00 +19°C° 0.1 mm 0 mps 738 mmHg 77%
    11:00 +23°C° 0.1 mm 1 mps 738 mmHg 69%
    12:00 +22°C° 1 mm 1 mps 737 mmHg 74%
    13:00 +21°C° 1 mm 1 mps 737 mmHg 78%
    14:00 +21°C° 1 mm 1 mps 737 mmHg 82%
    15:00 +21°C° 0.6 mm 1 mps 737 mmHg 82%
    16:00 +21°C° 0.6 mm 1 mps 737 mmHg 83%
    17:00 +21°C° 0.6 mm 1 mps 737 mmHg 83%
    18:00 +20°C° 0.3 mm 1 mps 737 mmHg 86%
    19:00 +18°C° 0.3 mm 1 mps 737 mmHg 89%
    20:00 +16°C° 0.3 mm 1 mps 737 mmHg 92%
    21:00 +15°C° 0 mm 1 mps 737 mmHg 93%
    22:00 +15°C° 0 mm 1 mps 737 mmHg 94%
    23:00 +14°C° 0 mm 1 mps 737 mmHg 96%

    Day after tomorrow, 19 July, Friday

    Time Temperature Precipitation Wind Pressure Humidity
    00:00 +13°C° 0 mm 2 mps 737 mmHg 97%
    01:00 +13°C° 0 mm 2 mps 737 mmHg 97%
    02:00 +13°C° 0 mm 2 mps 737 mmHg 98%
    03:00 +13°C° 0 mm 1 mps 737 mmHg 98%
    04:00 +13°C° 0 mm 1 mps 737 mmHg 98%
    05:00 +14°C° 0 mm 1 mps 737 mmHg 98%
    06:00 +14°C° 0 mm 1 mps 738 mmHg 96%
    07:00 +15°C° 0 mm 1 mps 738 mmHg 95%
    08:00 +15°C° 0 mm 1 mps 738 mmHg 94%
    09:00 +16°C° 0.2 mm 1 mps 738 mmHg 92%
    10:00 +16°C° 0.2 mm 1 mps 738 mmHg 91%
    11:00 +18°C° 0.2 mm 1 mps 738 mmHg 89%
    12:00 +18°C° 0.3 mm 1 mps 739 mmHg 89%
    13:00 +18°C° 0.3 mm 1 mps 739 mmHg 89%
    14:00 +18°C° 0.3 mm 1 mps 739 mmHg 89%
    15:00 +19°C° 0.3 mm 1 mps 739 mmHg 86%
    16:00 +18°C° 0.3 mm 2 mps 739 mmHg 82%
    17:00 +19°C° 0.3 mm 2 mps 739 mmHg 78%
    18:00 +18°C° 0.7 mm 2 mps 739 mmHg 83%
    19:00 +17°C° 0.7 mm 2 mps 739 mmHg 89%
    20:00 +15°C° 0.7 mm 2 mps 739 mmHg 94%
    21:00 +15°C° 0.1 mm 2 mps 740 mmHg 95%
    22:00 +14°C° 0.1 mm 2 mps 740 mmHg 95%
    23:00 +13°C° 0.1 mm 2 mps 740 mmHg 96%

    20 July, Saturday

    Time Temperature Precipitation Wind Pressure Humidity
    00:00 +14°C° 0.1 mm 2 mps 740 mmHg 97%
    01:00 +13°C° 0.1 mm 3 mps 740 mmHg 97%
    02:00 +14°C° 0.1 mm 3 mps 741 mmHg 98%
    03:00 +14°C° 0.1 mm 3 mps 741 mmHg 97%
    04:00 +14°C° 0.1 mm 3 mps 741 mmHg 96%
    05:00 +16°C° 0.1 mm 3 mps 741 mmHg 96%
    06:00 +16°C° 0.1 mm 3 mps 742 mmHg 94%
    07:00 +16°C° 0.1 mm 3 mps 742 mmHg 93%
    08:00 +17°C° 0.1 mm 3 mps 743 mmHg 91%
    09:00 +17°C° 0.2 mm 3 mps 743 mmHg 89%
    10:00 +18°C° 0.2 mm 3 mps 743 mmHg 86%
    11:00 +18°C° 0.2 mm 3 mps 744 mmHg 84%
    12:00 +19°C° 0.5 mm 4 mps 744 mmHg 79%
    13:00 +20°C° 0.5 mm 4 mps 744 mmHg 75%
    14:00 +21°C° 0.5 mm 4 mps 745 mmHg 70%
    15:00 +21°C° 0.2 mm 4 mps 745 mmHg 71%
    16:00 +20°C° 0.2 mm 4 mps 745 mmHg 72%
    17:00 +20°C° 0.2 mm 4 mps 745 mmHg 73%
    18:00 +19°C° 0 mm 4 mps 746 mmHg 78%
    19:00 +17°C° 0 mm 3 mps 746 mmHg 83%
    20:00 +16°C° 0 mm 2 mps 746 mmHg 88%
    21:00 +15°C° 0 mm 2 mps 746 mmHg 91%
    22:00 +15°C° 0 mm 2 mps 747 mmHg 94%
    23:00 +13°C° 0 mm 3 mps 747 mmHg 96%

    21 July, Sunday

    Time Temperature Precipitation Wind Pressure Humidity
    00:00 +13°C° 0 mm 3 mps 747 mmHg 97%
    01:00 +14°C° 0 mm 2 mps 747 mmHg 97%
    02:00 +13°C° 0 mm 2 mps 747 mmHg 98%
    03:00 +14°C° 0 mm 2 mps 747 mmHg 97%
    04:00 +14°C° 0 mm 2 mps 748 mmHg 96%
    05:00 +14°C° 0 mm 2 mps 748 mmHg 96%
    06:00 +16°C° 0 mm 2 mps 748 mmHg 88%
    07:00 +17°C° 0 mm 2 mps 748 mmHg 81%
    08:00 +19°C° 0 mm 2 mps 748 mmHg 73%
    09:00 +20°C° 0 mm 3 mps 748 mmHg 66%
    10:00 +21°C° 0 mm 3 mps 748 mmHg 59%
    11:00 +22°C° 0 mm 3 mps 748 mmHg 51%
    12:00 +22°C° 0 mm 3 mps 748 mmHg 50%
    13:00 +24°C° 0 mm 3 mps 748 mmHg 48%
    14:00 +24°C° 0 mm 3 mps 748 mmHg 47%
    15:00 +22°C° 0 mm 3 mps 748 mmHg 54%
    16:00 +21°C° 0 mm 3 mps 748 mmHg 61%
    17:00 +20°C° 0 mm 2 mps 748 mmHg 69%
    18:00 +19°C° 0 mm 2 mps 748 mmHg 72%
    19:00 +17°C° 0 mm 2 mps 748 mmHg 74%
    20:00 +16°C° 0 mm 1 mps 749 mmHg 77%
    21:00 +15°C° 0 mm 1 mps 749 mmHg 82%
    22:00 +14°C° 0 mm 1 mps 749 mmHg 86%
    23:00 +12°C° 0 mm 1 mps 749 mmHg 91%

    22 July, Monday

    Time Temperature Precipitation Wind Pressure Humidity
    00:00 +12°C° 0 mm 1 mps 749 mmHg 91%
    01:00 +12°C° 0 mm 1 mps 749 mmHg 92%
    02:00 +12°C° 0 mm 1 mps 749 mmHg 92%
    03:00 +13°C° 0 mm 1 mps 749 mmHg 90%
    04:00 +13°C° 0 mm 1 mps 749 mmHg 88%
    05:00 +14°C° 0 mm 1 mps 749 mmHg 86%
    06:00 +15°C° 0 mm 1 mps 749 mmHg 81%
    07:00 +17°C° 0 mm 2 mps 749 mmHg 76%
    08:00 +18°C° 0 mm 2 mps 749 mmHg 71%
    09:00 +19°C° 0 mm 2 mps 749 mmHg 65%
    10:00 +21°C° 0 mm 2 mps 749 mmHg 58%
    11:00 +23°C° 0 mm 2 mps 749 mmHg 51%
    12:00 +24°C° 0 mm 2 mps 749 mmHg 50%
    13:00 +24°C° 0 mm 3 mps 749 mmHg 48%
    14:00 +25°C° 0 mm 3 mps 749 mmHg 47%
    15:00 +24°C° 0 mm 3 mps 749 mmHg 49%
    16:00 +24°C° 0 mm 3 mps 749 mmHg 51%
    17:00 +24°C° 0 mm 3 mps 749 mmHg 53%
    18:00 +20°C° 0 mm 3 mps 749 mmHg 59%
    19:00 +18°C° 0 mm 2 mps 749 mmHg 66%
    20:00 +16°C° 0 mm 2 mps 749 mmHg 72%
    21:00 +15°C° 0 mm 2 mps 749 mmHg 74%
    22:00 +14°C° 0 mm 2 mps 749 mmHg 75%
    23:00 +13°C° 0 mm 2 mps 749 mmHg 77%
    Show more